TDRS 9

operational
NORAD ID: 27389 Int'l Des: 2002-011 Owner: GSFC Country: US
HEOCIRCULAR

Über TDRS 9

Beschreibung wird geladen...

Live-Position

3D-Globus wird geladen...

Nächste Überflüge

Höhenverlauf

Altitude vs Time

uPlot chart will show altitude changes over time

Zweizeiliger Elementsatz

1 27389U 02011A 26063.09126738 -.00000042 00000-0 00000+0 0 9992
2 27389 11.9500 47.8545 0002646 208.6113 326.6638 0.98982207 89241
Epoch: 4. März 2026 • Age: 17 hours

Aktueller Status

Höhe 36161.8 km
Geschwindigkeit 3.06 km/s
Subsatellitenpunkt 7.67°N, 24.87°E
Startdatum 8. März 2002
Alter 23.9 years
Typ other

Technische Details

Klassifizierung Payload
Masse 3190.00 kg
Trockenmasse 1600.00 kg
Gesamtmasse 3190.00 kg
Länge 8.40 m
Durchmesser 3.40 m
Spannweite 21.00 m
Form Box + 2 Pan + 2 Dish
Hersteller BOES
Bus-Typ HS-601
Phasenstatus In Orbit
Besitzer/Staat GSFC/US

Große Konstellationen

Loading constellations...